EHI
0 0 0 0 0 0 0 0 0 0 0 0 0 0 0 0 0 0 0 0 0 0 0 0 0 0 0 0 0 0 0 0 0 0 0 0 0 0 0 0 0 0 0 0
0 0 0 0 0 0 0 0 0 0 0 0 0 0 0 0 0 0 0 0 0 0 0 0 0 0 0 0 0 0 0 0 0 0 0 0 0 0 0 0 0 0 0 0
0 0 0 0 0 0 0 0 0 0 0 0 0 0 0 0 0 0 0 0 0 0 0 0 0 0 0 0 0 0 0 0 0 0 0 0 0 0 0 0 0 0 0 0
0 0 0 0 0 0 0 0 0 0 0 0 0 0 0 0 0 0 0 0 0 0 0 0 0 0 0 0 0 0 0 0 0 0 0 0 0 0 0 0 0 0 0 0
0 0 0 0 0 0 0 0 0 0 0 0 0 0 0 0 0 0 0 0 0 0 0 0 0 0 0 0 0 0 0 0 0 0 0 0 0 0 0 0 0 0 0 0
0 0 0 0 0 0 0 0 0 0 0 0 0 0 0 0 0 0 0 0 0 0 0 0 0 0 0 0 0 0 0 0 0 0 0 0 0 0 0 0 0 0 0 0
0 0 0 0 0 0 0 0 0 0 0 0 0 0 0 0 0 0 0 0 0 0 0 0 0 0 0 0 0 0 0 0 0 0 0 0 0 0 0 0 0 0 0 0
0 0 0 0 0 0 0 0 0 0 0 0 0 0 0 0 0 0 0 0 0 0 0 0 0 0 0 0 0 0 0 0 0 0 0 0 0 0 0 0 0 0 0 0
0 0 0 0 0 0 0 0 0 0 0 0 0 0 0 0 0 0 0 0 0 0 0 0 0 0 0 0 0 0 0 0 0 1 1 1 0 0 0 0 0 0 0 0
0 0 0 0 0 0 0 0 0 0 0 0 0 0 0 0 0 0 0 0 0 0 0 0 0 0 0 0 0 0 0 0 1 2 2 1 0 0 0 0 0 0 0 0
0 0 0 0 0 0 0 0 0 0 0 0 0 0 0 0 0 0 0 0 0 0 0 0 0 0 0 0 0 0 0 0 1 2 2 1 0 0 0 0 0 0 0 0
0 0 0 0 0 0 0 0 0 0 0 0 0 0 0 0 0 0 0 0 0 0 0 0 0 0 0 0 0 0 0 0 0 1 1 0 0 0 0 0 0 0 0 0
0 0 0 0 0 0 0 0 0 0 0 0 0 0 0 0 0 0 0 0 0 0 0 0 0 0 0 0 0 0 0 0 0 0 0 0 0 0 0 0 0 0 0 0
0 0 0 0 0 0 0 0 0 0 0 0 0 0 0 0 0 0 0 0 0 0 0 0 0 0 0 0 0 0 0 0 0 0 0 0 0 0 0 0 0 0 0 0
0 0 0 0 0 0 0 0 0 0 0 0 0 0 0 0 0 0 0 0 0 0 0 0 0 0 0 0 0 0 0 0 0 0 0 0 0 0 0 0 0 0 0 0
0 0 0 0 0 0 0 0 0 0 0 0 0 0 0 0 0 0 0 0 0 0 0 0 0 0 0 0 0 0 0 0 0 0 0 0 0 0 0 0 0 0 0 0
0 0 0 0 0 0 0 0 0 0 0 0 0 0 0 0 0 0 0 0 0 0 0 0 0 0 0 0 0 0 0 0 0 0 0 0 0 0 0 0 0 0 0 0
0 0 0 0 0 0 0 0 0 0 0 0 0 0 0 0 0 0 0 0 0 0 0 0 0 0 0 0 0 0 0 0 0 0 0 0 0 0 0 0 0 0 0 0
0 0 0 0 0 0 0 0 0 0 0 0 0 0 0 0 0 0 0 0 0 0 0 0 0 0 0 0 0 0 0 0 0 0 0 0 0 0 0 0 0 0 0 0
0 0 0 0 0 0 0 0 0 0 0 0 0 0 0 0 0 0 0 0 0 0 0 0 0 0 0 0 0 0 0 0 0 0 0 0 0 0 0 0 0 0 0 0
0 0 0 0 0 0 0 0 0 0 0 0 0 0 0 0 0 0 0 0 0 0 0 0 0 0 0 0 0 0 0 0 0 0 0 0 0 0 0 0 0 0 0 0
0 0 0 0 0 0 0 0 0 0 0 0 0 0 0 0 0 0 0 0 0 0 0 0 0 0 0 0 0 0 0 0 0 0 0 0 0 0 0 0 0 0 0 0
0 0 0 0 0 0 0 0 0 0 0 0 0 0 0 0 0 0 0 0 0 0 0 0 0 0 0 0 0 0 0 0 0 0 0 0 0 0 0 0 0 0 0 0
0 0 0 0 0 0 0 0 0 0 0 0 0 0 0 0 0 0 0 0 0 0 0 0 0 0 0 0 0 0 0 0 0 0 0 0 0 0 0 0 0 0 0 0
0 0 0 0 0 0 0 0 0 0 0 0 0 0 0 0 0 0 0 0 0 0 0 0 0 0 0 0 0 0 0 0 0 0 0 0 0 0 0 0 0 0 0 0
0 0 0 0 0 0 0 0 0 0 0 0 0 0 0 0 0 0 0 0 0 0 0 0 0 0 0 0 0 0 0 0 0 0 0 0 0 0 0 0 0 0 0 0
0 0 0 0 0 0 0 0 0 0 0 0 0 0 0 0 0 0 0 0 0 0 0 0 0 0 0 0 0 0 0 0 0 0 0 0 0 0 0 0 0 0 0 0
Wind_Speed
8 7 5 7 8 8 10 10 10 11 12 15 10 8 7 6 5 5 5 5 4 4 3 3 3 3 3 3 3 3 3 3 4 4 4 4 4 4 4 4 4 4 4 5
5 5 5 8 10 10 11 9 11 12 15 11 9 6 6 5 5 6 6 5 5 4 4 3 3 3 3 3 3 3 3 4 4 3 4 5 5 4 4 4 4 4 5 5
5 3 4 9 9 9 6 7 8 11 11 6 7 7 6 6 5 6 6 5 5 4 4 4 4 3 4 3 3 3 3 4 3 3 4 5 5 4 5 5 4 5 5 5
2 2 7 8 2 5 6 6 6 7 7 6 7 8 6 4 4 5 5 5 4 3 3 3 3 3 3 2 2 2 3 3 3 3 4 5 5 5 5 4 4 4 5 5
2 4 10 7 2 2 4 6 4 7 8 7 7 6 5 2 3 4 5 4 3 3 3 2 3 2 2 2 2 2 3 3 3 4 4 4 5 5 4 4 4 5 5 5
3 4 8 6 2 1 1 5 3 3 6 5 4 3 5 4 4 4 3 2 2 2 2 2 3 2 2 2 2 3 4 4 4 4 4 5 5 4 4 4 5 4 5 4
5 7 10 5 1 1 2 6 4 3 4 3 3 5 5 5 5 3 3 3 2 2 2 2 2 2 2 3 3 4 4 3 4 4 4 4 4 4 4 4 4 4 5 5
5 6 11 2 3 4 5 3 3 3 3 4 5 6 5 4 4 4 3 3 2 2 3 3 2 2 2 4 4 4 3 3 3 3 3 3 3 3 3 4 4 4 4 4
9 9 3 3 4 3 1 3 3 3 4 3 4 5 5 4 4 3 3 3 2 1 2 3 3 2 3 4 4 3 3 3 3 3 3 3 3 3 3 3 3 3 3 3
6 7 4 4 3 3 3 4 5 4 4 3 4 4 4 4 4 3 3 2 2 2 2 3 4 4 3 4 4 3 3 3 3 2 2 2 2 2 2 3 3 3 3 3
6 6 4 3 4 5 5 4 4 4 3 3 3 4 3 3 3 3 3 2 2 2 2 3 4 4 4 4 3 4 3 3 3 2 2 2 2 2 3 3 4 4 3 3
7 5 4 5 4 3 3 4 4 3 3 3 2 3 3 3 2 2 2 2 2 2 2 3 3 4 4 4 3 3 3 3 2 2 2 2 1 2 5 4 5 5 5 4
5 4 4 5 4 2 2 3 3 2 2 3 2 2 2 2 2 2 2 2 2 2 2 3 3 4 4 4 4 3 3 3 2 2 2 2 2 2 2 4 5 5 5 5
3 2 3 4 4 3 1 2 2 2 2 1 2 2 1 2 2 2 2 2 2 2 2 3 3 4 4 4 4 3 3 4 4 2 2 2 2 2 1 2 2 2 4 5
3 2 4 3 2 2 2 1 2 2 2 3 2 2 2 2 2 2 2 2 2 2 3 3 4 4 4 4 4 3 3 3 2 2 2 2 2 2 1 2 2 2 2 3
3 2 1 1 2 3 2 1 1 2 2 2 2 3 2 2 2 2 2 2 2 3 4 4 4 4 4 4 4 3 3 6 5 3 2 2 2 1 1 1 1 2 2 2
2 3 2 2 3 3 2 2 2 2 2 2 2 2 2 2 2 2 3 3 3 3 3 4 4 4 4 4 3 3 3 4 6 4 2 2 2 1 1 1 2 2 2 3
2 2 2 2 2 2 2 2 2 2 2 2 2 1 1 1 2 2 3 3 3 3 4 4 4 4 4 4 3 2 2 2 3 3 2 2 2 2 2 2 2 2 2 3
3 2 2 2 1 1 1 2 2 2 2 1 1 1 1 1 2 2 2 2 2 4 5 5 7 5 4 5 4 2 2 3 3 3 2 4 4 3 2 2 2 2 2 3
3 3 3 3 3 1 1 2 1 2 2 1 1 1 2 2 2 2 2 2 2 3 4 5 5 4 4 4 5 2 2 2 3 3 3 2 3 3 3 3 3 3 3 2
3 3 3 3 3 3 2 2 1 2 2 1 0 1 2 2 2 1 1 3 4 4 4 6 4 3 3 4 4 2 2 2 3 2 3 2 3 3 3 3 3 3 3 3
2 2 2 2 2 3 3 2 1 1 1 1 1 1 1 2 2 2 2 2 3 6 4 2 3 5 5 4 2 2 2 2 2 2 2 2 2 3 3 3 3 3 3 3
2 2 2 2 2 2 3 2 2 1 1 1 1 1 2 2 1 1 3 3 3 5 4 2 5 8 8 3 2 2 2 3 3 2 2 2 3 3 3 3 3 4 3 4
2 2 2 2 2 2 2 3 2 2 1 2 1 1 1 1 2 2 2 5 7 6 3 5 8 8 7 2 2 2 2 3 3 2 3 3 3 3 3 3 4 4 4 4
2 1 2 2 2 2 2 2 2 2 2 1 2 2 1 1 1 2 2 4 6 6 3 6 8 8 4 2 2 2 3 3 3 3 2 3 3 3 3 3 3 4 4 4
1 1 2 2 2 2 2 1 1 1 1 2 2 2 2 1 2 2 2 3 4 6 4 3 4 5 3 3 3 3 3 4 4 4 3 3 4 4 4 4 5 4 4 4
2 1 1 1 2 2 1 1 1 2 2 2 2 2 2 2 2 2 2 3 3 3 3 3 3 3 3 3 3 3 3 3 3 3 4 3 4 4 4 5 4 4 4 5
Wind_Direction
263 274 253 246 239 211 212 219 225 250 255 271 280 277 274 270 270 283 287 281 273 270 269 272 274 272 270 267 244 228 218 222 234 242 238 235 237 235 236 238 245 244 248 251
278 271 268 267 256 232 233 235 241 262 271 275 290 292 284 273 265 272 270 268 272 274 271 271 272 273 273 272 259 238 231 237 239 239 246 237 236 235 236 237 239 240 241 246
265 301 329 271 240 214 222 224 211 237 257 294 310 298 279 270 264 265 267 272 273 269 265 268 268 269 268 265 264 243 241 245 243 241 249 243 237 236 235 236 238 242 244 246
270 349 252 246 212 200 218 245 222 250 282 292 286 290 279 257 256 270 277 279 279 278 283 289 292 292 289 288 271 257 256 257 252 252 254 250 234 236 236 236 236 243 251 250
207 254 274 286 255 189 215 270 239 250 277 299 315 316 295 274 274 275 278 277 277 280 288 298 298 297 308 305 295 280 269 265 260 254 255 252 242 239 239 236 242 244 248 245
196 231 251 258 278 294 111 281 292 250 271 290 334 318 288 318 318 312 310 305 303 318 330 321 316 324 323 307 302 289 279 272 266 257 254 250 248 247 246 241 245 250 259 252
215 238 263 267 281 110 176 268 299 264 269 273 256 249 282 313 317 318 317 320 334 359 344 323 330 345 328 316 298 295 294 285 279 269 261 252 244 240 239 242 244 247 255 258
192 221 255 226 133 187 233 293 299 291 285 277 275 288 300 309 315 325 330 335 1 11 347 343 348 349 328 312 308 311 304 292 288 281 271 263 242 246 238 228 234 240 247 258
200 220 253 176 202 236 266 290 292 290 291 286 288 293 304 311 310 315 320 326 352 15 351 345 347 347 328 317 322 322 317 304 298 294 281 277 260 247 234 222 226 240 241 251
249 262 263 250 254 277 277 270 280 277 282 284 277 288 301 307 311 315 325 329 343 7 353 338 340 341 330 325 334 336 321 312 308 300 290 287 275 258 241 229 226 231 239 250
255 278 299 272 260 274 282 292 298 301 288 275 272 287 290 297 301 306 321 333 340 334 326 331 341 343 340 341 343 340 333 321 316 309 288 283 285 274 266 248 238 235 236 239
243 247 241 272 282 281 284 295 296 304 314 309 271 275 293 300 304 314 324 334 337 336 339 338 342 341 341 342 344 344 341 341 336 327 317 306 316 335 336 323 314 304 295 289
252 272 262 277 297 296 279 296 309 309 295 308 313 300 309 319 328 339 340 339 329 331 336 337 342 342 341 344 346 343 333 333 334 331 327 321 317 316 328 341 343 340 334 325
269 282 285 287 294 309 303 309 342 350 335 323 322 340 345 345 345 345 336 329 334 339 339 339 344 339 338 343 345 341 335 332 334 327 322 321 319 316 313 322 329 330 331 332
303 268 251 282 316 337 352 9 16 354 348 352 356 352 350 343 335 328 328 338 349 348 343 344 341 335 340 340 339 336 335 335 331 325 323 322 326 335 345 341 327 322 325 324
320 327 306 312 314 328 349 358 334 319 332 335 341 339 337 334 329 332 340 347 348 334 330 332 330 331 339 341 340 341 336 334 336 332 330 332 337 340 337 335 334 331 320 311
313 314 320 320 316 321 316 294 279 287 307 313 311 322 343 359 1 351 345 344 336 322 323 328 329 334 338 338 335 332 335 334 337 338 335 331 326 318 321 333 329 321 320 317
295 287 280 264 268 297 321 326 320 316 307 299 319 344 352 346 326 321 329 338 343 341 336 333 331 336 340 339 340 336 334 333 330 327 327 332 338 341 344 345 340 330 324 324
7 5 355 348 323 304 312 319 323 325 323 335 350 333 323 324 321 328 336 345 343 334 331 332 335 345 340 337 342 332 329 331 330 330 335 339 349 355 353 342 325 319 318 323
11 16 15 9 5 348 318 318 331 338 331 340 4 356 348 338 338 341 342 324 311 303 314 328 334 334 338 336 341 334 329 331 336 340 346 345 340 340 337 330 327 321 315 313
357 2 6 3 354 348 332 317 321 320 324 338 294 284 300 317 329 334 338 322 320 319 322 327 333 329 334 335 336 342 345 342 338 335 332 331 331 330 328 325 322 319 317 314
338 344 345 347 344 336 329 325 311 302 315 323 308 312 329 328 330 326 301 283 303 320 329 315 318 328 334 334 339 346 340 332 327 327 327 324 321 318 316 316 314 311 310 309
326 328 328 327 318 317 327 331 317 298 293 291 294 303 301 298 301 310 311 312 310 317 327 315 324 329 335 354 356 343 334 329 324 322 318 312 306 304 304 306 304 305 305 305
325 330 327 327 327 337 333 327 324 316 302 294 296 290 292 309 311 292 289 313 322 324 330 324 330 334 345 8 351 337 327 320 314 309 305 303 301 302 303 304 304 304 303 302
315 317 322 328 323 314 313 319 333 337 333 325 320 315 305 270 276 302 311 312 317 327 331 326 330 335 347 338 328 319 312 306 301 299 295 300 302 302 301 300 298 298 299 298
304 297 290 285 288 300 310 318 321 317 321 323 323 323 324 320 309 311 316 315 315 324 329 322 321 325 324 317 312 309 305 307 315 317 309 303 301 298 297 296 295 293 292 291
321 318 320 323 325 320 316 315 308 310 312 305 310 320 325 328 329 326 322 321 320 321 317 316 316 315 313 311 308 305 303 301 300 298 297 294 291 289 291 290 290 290 290 289